Flag for Germany Weather past 2 weeks in Recklinghausen, North Rhine-Westphalia, Germany

Now
55 °F

Sunny.


Feels Like: 52 °F
Forecast: 46 / 66 °F
Wind: 12 mph from Southwest

Location: Dortmund / Wickede

Current Time: Aug 20, 2014 at 9:47:16 AM

Latest Report: Aug 20, 2014 at 9:20 AM


Visibility: 10 mi

Pressure: 30.01 "Hg

Humidity: 72%

Dew point: 46 °F

Location of RecklinghausenLocation

Historic Weather in Recklinghausen — Graph

°F

Recklinghausen temperature yesterday

Maximum temperature yesterday: 59 °F (at 4:50 PM)
Minimum temperature yesterday: 50 °F (at 9:20 PM)
Average temperature yesterday: 54 °F

Past Weeks' High & Low Weather Summary

 TemperatureHumidityPressure
High79 °F (Aug 8, 1:20 PM)94% (Aug 15, 7:20 AM)30.12 "Hg (Aug 15, 7:20 AM)
Low48 °F (Aug 20, 5:20 AM)36% (Aug 5, 5:50 PM)29.59 "Hg (Aug 10, 7:20 PM)
Average63 °F69%29.87 "Hg
* Reported Aug 5 8:20 AM — Aug 20 8:20 AM, Recklinghausen, Weather by CustomWeather, © 2014

Note: Actual official high and low records may vary slightly from our data, if they occured in-between our weather recording intervals... More about our weather records

Advertising

Recklinghausen weather history for previous 24 hours

 ConditionsComfort  
Time TempWeatherWind HumidityBarometerVisibility
8:20 AM
Aug 20
52 °FSunny.10 mph77%29.98 "Hg10 mi
7:50 AM50 °FSunny.13 mph76%29.98 "Hg10 mi
7:20 AM50 °FClear.12 mph76%29.98 "Hg10 mi
6:50 AM50 °FPassing clouds.10 mph76%29.98 "HgN/A
6:20 AM48 °FScattered showers. Passing clouds.12 mph82%29.98 "HgN/A
5:50 AM48 °FPassing clouds.10 mph82%29.98 "HgN/A
5:20 AM48 °FPassing clouds.9 mph82%29.98 "HgN/A
10:50 PM
Aug 19
50 °FClear.10 mph76%29.95 "Hg10 mi
10:20 PM50 °FClear.10 mph76%29.95 "Hg10 mi
9:50 PM50 °FClear.9 mph82%29.92 "Hg10 mi
9:20 PM50 °FSunny.10 mph82%29.92 "Hg10 mi
8:50 PM52 °FPassing clouds.13 mph77%29.92 "HgN/A
8:20 PM52 °FScattered clouds.12 mph82%29.89 "HgN/A
7:50 PM54 °FSunny.13 mph77%29.89 "Hg10 mi
7:20 PM52 °FSunny.12 mph82%29.89 "Hg10 mi
6:50 PM52 °FPartly sunny.9 mph82%29.86 "HgN/A
6:20 PM52 °FRain. Cloudy.15 mph77%29.86 "Hg5 mi
5:50 PM57 °FPartly sunny.15 mph63%29.83 "HgN/A
5:20 PM59 °FPartly sunny.15 mph63%29.83 "HgN/A
4:50 PM59 °FPartly sunny.17 mph68%29.83 "HgN/A
4:20 PM57 °FPartly sunny.9 mph77%29.83 "HgN/A
3:50 PM57 °FPartly sunny.13 mph77%29.83 "HgN/A
3:20 PM57 °FPartly sunny.12 mph82%29.83 "HgN/A
2:50 PM55 °FSunny.14 mph82%29.83 "Hg10 mi
2:20 PM54 °FSunny.14 mph88%29.83 "Hg10 mi
1:50 PM52 °FSprinkles. Scattered clouds.12 mph88%29.83 "HgN/A
1:20 PM54 °FSprinkles. Partly sunny.16 mph82%29.83 "HgN/A
12:50 PM57 °FScattered showers. Partly sunny.15 mph82%29.80 "HgN/A
12:20 PM57 °FScattered showers. Partly sunny.15 mph82%29.80 "HgN/A
11:50 AM57 °FScattered clouds.14 mph82%29.80 "HgN/A
11:20 AM57 °FPartly sunny.14 mph82%29.80 "HgN/A
10:50 AM55 °FPartly sunny.14 mph82%29.80 "HgN/A
10:20 AM55 °FScattered showers. Clear.14 mph82%29.80 "HgN/A
9:50 AM55 °FScattered showers. Clear.14 mph82%29.80 "HgN/A
9:20 AM54 °FSprinkles. Scattered clouds.15 mph88%29.80 "Hg6 mi
Weather by CustomWeather, © 2014

See weather overviewHow to use our weather pages